Location: Lane
(33.5226°N, 79.8788°W)
Time: 05:33:39
(UTC+00:00)

Transit 2A Rocket - Pass Details

Date: 12 October 2022
Orbit: 589 x 911 km, 66.7° (Epoch: 27 November)

Event Time Altitude Azimuth Distance (km) Brightness Sun altitude
Exits shadow 09:12:33 10° 1° (N) 1,904 7.2 -27.7°
Drops below altitude 10° 09:12:39 10° 2° (N) 1,937 7.2 -27.7°
Sets 09:15:10 0° 14° (NNE) 2,855 8.3 -27.1°
